TimeEDT,TemperatureF,Dew PointF,Humidity,Sea Level PressureIn,VisibilityMPH,Wind Direction,Wind SpeedMPH,Gust SpeedMPH,PrecipitationIn,Events,Conditions,WindDirDegrees,DateUTC
12:54 AM,79.0,73.9,84,29.89,10.0,SW,9.2,-,N/A,,Mostly Cloudy,230,2013-07-10 04:54:00
1:54 AM,78.1,73.9,87,29.88,10.0,WSW,10.4,-,N/A,,Scattered Clouds,240,2013-07-10 05:54:00
2:54 AM,77.0,73.9,90,29.88,8.0,WSW,8.1,-,N/A,,Partly Cloudy,240,2013-07-10 06:54:00
3:54 AM,77.0,73.0,88,29.87,7.0,SW,8.1,-,N/A,,Partly Cloudy,230,2013-07-10 07:54:00
4:54 AM,75.9,73.0,91,29.86,7.0,SSW,8.1,-,N/A,,Clear,210,2013-07-10 08:54:00
5:54 AM,75.9,73.0,91,29.86,5.0,SW,10.4,-,N/A,,Clear,220,2013-07-10 09:54:00
6:54 AM,75.9,73.0,91,29.86,3.0,SW,9.2,-,N/A,,Clear,220,2013-07-10 10:54:00
7:54 AM,77.0,73.0,88,29.84,5.0,SW,5.8,-,N/A,,Partly Cloudy,230,2013-07-10 11:54:00
8:54 AM,79.0,73.9,84,29.86,6.0,WNW,6.9,-,N/A,,Haze,290,2013-07-10 12:54:00
9:02 AM,80.6,73.4,79,29.87,6.0,WNW,5.8,-,N/A,,Haze,290,2013-07-10 13:02:00
9:24 AM,80.6,73.4,79,29.87,7.0,West,6.9,-,N/A,,Scattered Clouds,280,2013-07-10 13:24:00
9:31 AM,80.6,73.4,79,29.87,7.0,West,4.6,-,N/A,,Mostly Cloudy,270,2013-07-10 13:31:00
9:54 AM,82.0,75.0,79,29.86,7.0,West,5.8,-,N/A,,Mostly Cloudy,280,2013-07-10 13:54:00
10:28 AM,82.4,73.4,74,29.87,10.0,NNW,10.4,-,N/A,,Overcast,330,2013-07-10 14:28:00
10:54 AM,82.0,73.0,74,29.85,10.0,NW,8.1,-,N/A,,Overcast,320,2013-07-10 14:54:00
11:43 AM,80.6,71.6,74,29.88,10.0,NNW,15.0,-,N/A,Thunderstorm,Overcast,330,2013-07-10 15:43:00
11:54 AM,80.1,70.0,71,29.86,10.0,North,16.1,-,N/A,Thunderstorm,Mostly Cloudy,350,2013-07-10 15:54:00
12:12 PM,80.6,69.8,70,29.90,10.0,NW,9.2,-,N/A,,Mostly Cloudy,320,2013-07-10 16:12:00
12:42 PM,80.6,69.8,70,29.90,10.0,NW,13.8,-,N/A,,Mostly Cloudy,320,2013-07-10 16:42:00
12:51 PM,80.6,69.8,70,29.90,10.0,NW,13.8,-,N/A,,Scattered Clouds,320,2013-07-10 16:51:00
12:54 PM,80.1,70.0,71,29.88,10.0,NW,13.8,-,N/A,,Mostly Cloudy,320,2013-07-10 16:54:00
1:54 PM,78.1,68.0,71,29.88,10.0,NNW,17.3,26.5,N/A,,Overcast,340,2013-07-10 17:54:00
2:25 PM,78.8,64.4,61,29.93,10.0,NNW,16.1,-,N/A,,Partly Cloudy,340,2013-07-10 18:25:00
2:54 PM,78.1,64.0,62,29.94,10.0,NNW,11.5,-,N/A,,Partly Cloudy,340,2013-07-10 18:54:00
3:54 PM,79.0,63.0,58,29.92,10.0,North,11.5,-,N/A,,Scattered Clouds,360,2013-07-10 19:54:00
4:54 PM,78.1,62.1,58,29.89,10.0,North,15.0,-,N/A,,Partly Cloudy,360,2013-07-10 20:54:00
5:54 PM,77.0,60.1,56,29.89,10.0,North,16.1,23.0,N/A,,Mostly Cloudy,350,2013-07-10 21:54:00
6:54 PM,75.0,55.0,50,29.90,10.0,North,16.1,25.3,N/A,,Clear,350,2013-07-10 22:54:00
7:54 PM,73.0,54.0,51,29.91,10.0,North,12.7,-,N/A,,Clear,360,2013-07-10 23:54:00
8:54 PM,70.0,55.0,59,29.94,10.0,North,10.4,-,N/A,,Clear,360,2013-07-11 00:54:00
9:54 PM,66.0,55.9,70,29.96,10.0,NNE,4.6,-,N/A,,Clear,20,2013-07-11 01:54:00
10:54 PM,64.9,55.9,73,29.98,10.0,North,3.5,-,N/A,,Clear,360,2013-07-11 02:54:00
11:54 PM,64.9,57.0,75,30.00,10.0,Calm,Calm,-,N/A,,Clear,0,2013-07-11 03:54:00